AZV1705 UHWW-RJBB

Flight info

Callsign AZV1705
Flight time 1h 32m
Altitude 37000
Route VATIS2G VATIS B355 TERNI G705 RIVAT G711 KANSU/N0457F360 B332 IGRAS/N0459F370 Y332 MIHOU Y361 SAEKI Y36 ATMUG
Aircraft B764/H-SDFGHIM3RWXY/LB1

Departure

Time 2026-04-25 17:54
Airport Vladivostok International Airport (UHWW)

Arrival

Time 2026-04-25 19:26
Airport Kansai International Airport (RJBB)
Time Latitude Longitude Altitude Speed Heading
2026-04-25 17:43 43.39677 132.16327 64 ft 0 kts 151°
2026-04-25 17:46 43.39686 132.16321 64 ft 2 kts 150°
2026-04-25 17:46 43.39700 132.16310 64 ft 2 kts 150°
2026-04-25 17:46 43.39713 132.16299 63 ft 2 kts 150°
2026-04-25 17:46 43.39723 132.16292 63 ft 0 kts 150°
2026-04-25 17:47 43.39733 132.16283 63 ft 2 kts 124°
2026-04-25 17:47 43.39738 132.16264 63 ft 2 kts 91°
2026-04-25 17:47 43.39736 132.16248 63 ft 0 kts 64°
2026-04-25 17:47 43.39733 132.16240 64 ft 1 kts 61°
2026-04-25 17:49 43.39735 132.16246 63 ft 3 kts 61°
2026-04-25 17:49 43.39755 132.16295 62 ft 6 kts 61°
2026-04-25 17:50 43.39784 132.16367 59 ft 11 kts 62°
2026-04-25 17:50 43.39830 132.16481 55 ft 15 kts 59°
2026-04-25 17:50 43.39886 132.16617 51 ft 17 kts 61°
2026-04-25 17:50 43.39946 132.16766 49 ft 16 kts 61°
2026-04-25 17:51 43.40003 132.16910 46 ft 18 kts 61°
2026-04-25 17:51 43.40050 132.17024 43 ft 8 kts 60°
2026-04-25 17:51 43.40083 132.17082 43 ft 6 kts 29°
2026-04-25 17:51 43.40130 132.17075 42 ft 7 kts 334°
2026-04-25 17:52 43.40194 132.17029 40 ft 11 kts 332°
2026-04-25 17:52 43.40242 132.16994 40 ft 12 kts 331°
2026-04-25 17:52 43.40346 132.16916 39 ft 12 kts 331°
2026-04-25 17:52 43.40419 132.16858 39 ft 10 kts 314°
2026-04-25 17:53 43.40425 132.16779 39 ft 7 kts 245°
2026-04-25 17:53 43.40398 132.16710 40 ft 16 kts 241°
2026-04-25 17:53 43.40255 132.16354 46 ft 69 kts 240°
2026-04-25 17:53 43.39940 132.15576 60 ft 117 kts 240°
2026-04-25 17:54 43.39473 132.14412 76 ft 157 kts 237°
2026-04-25 17:54 43.38926 132.13055 444 ft 168 kts 238°
2026-04-25 17:54 43.38351 132.11638 1025 ft 171 kts 237°
2026-04-25 17:54 43.37754 132.10199 1471 ft 184 kts 237°
2026-04-25 17:55 43.37075 132.08540 1682 ft 212 kts 238°
2026-04-25 17:55 43.36232 132.06700 1866 ft 242 kts 225°
2026-04-25 17:55 43.34777 132.05510 2550 ft 251 kts 192°
2026-04-25 17:55 43.33046 132.05565 3440 ft 260 kts 166°
2026-04-25 17:56 43.31435 132.06734 4294 ft 268 kts 152°
2026-04-25 17:56 43.29773 132.07848 5196 ft 267 kts 166°
2026-04-25 17:56 43.27998 132.08563 6078 ft 269 kts 173°
2026-04-25 17:56 43.26181 132.09093 6952 ft 271 kts 176°
2026-04-25 17:57 43.24336 132.09511 7921 ft 270 kts 179°
2026-04-25 17:57 43.22481 132.09854 8797 ft 273 kts 180°
2026-04-25 17:57 43.20600 132.10161 9701 ft 275 kts 181°
2026-04-25 17:57 43.19354 132.10350 10284 ft 277 kts 181°
2026-04-25 17:58 43.16626 132.10724 10602 ft 315 kts 181°
2026-04-25 17:58 43.14350 132.11032 11026 ft 340 kts 180°
2026-04-25 17:58 43.11990 132.11356 12132 ft 346 kts 181°
2026-04-25 17:58 43.09586 132.11676 13042 ft 354 kts 180°
2026-04-25 17:59 43.07117 132.12004 14084 ft 358 kts 180°
2026-04-25 17:59 43.04645 132.12331 15041 ft 364 kts 180°
2026-04-25 17:59 43.02121 132.12665 16023 ft 368 kts 180°
2026-04-25 17:59 42.99581 132.12997 16965 ft 373 kts 181°
2026-04-25 18:00 42.96973 132.13338 17904 ft 378 kts 181°
2026-04-25 18:00 42.94356 132.13680 18837 ft 383 kts 180°
2026-04-25 18:00 42.91690 132.14026 19711 ft 389 kts 180°
2026-04-25 18:00 42.88997 132.14375 20517 ft 397 kts 180°
2026-04-25 18:01 42.86240 132.14734 21399 ft 402 kts 180°
2026-04-25 18:01 42.83458 132.14987 22231 ft 405 kts 182°
2026-04-25 18:01 42.80614 132.15242 23005 ft 411 kts 182°
2026-04-25 18:01 42.77752 132.15488 23703 ft 417 kts 181°
2026-04-25 18:02 42.74849 132.15745 24509 ft 421 kts 181°
2026-04-25 18:02 42.71941 132.16002 25282 ft 424 kts 181°
2026-04-25 18:02 42.68970 132.16261 25947 ft 429 kts 181°
2026-04-25 18:02 42.65982 132.16525 26658 ft 433 kts 181°
2026-04-25 18:03 42.62974 132.16789 27301 ft 437 kts 181°
2026-04-25 18:03 42.59932 132.17056 27970 ft 440 kts 181°
2026-04-25 18:03 42.56876 132.17322 28484 ft 446 kts 181°
2026-04-25 18:03 42.53775 132.17595 29173 ft 447 kts 181°
2026-04-25 18:04 42.50666 132.17865 29588 ft 453 kts 181°
2026-04-25 18:04 42.47514 132.18141 30154 ft 456 kts 181°
2026-04-25 18:04 42.44345 132.18417 30675 ft 459 kts 181°
2026-04-25 18:04 42.41141 132.18697 31134 ft 462 kts 181°
2026-04-25 18:05 42.37939 132.18976 31597 ft 465 kts 181°
2026-04-25 18:05 42.34715 132.19255 32068 ft 467 kts 180°
2026-04-25 18:05 42.31462 132.19539 32610 ft 468 kts 180°
2026-04-25 18:05 42.28248 132.19820 33315 ft 464 kts 181°
2026-04-25 18:06 42.25043 132.20099 33979 ft 462 kts 181°
2026-04-25 18:06 42.21788 132.20380 34423 ft 463 kts 180°
2026-04-25 18:06 42.18596 132.20656 35018 ft 461 kts 181°
2026-04-25 18:06 42.15411 132.20934 35525 ft 458 kts 181°
2026-04-25 18:07 42.12227 132.21208 35904 ft 458 kts 181°
2026-04-25 18:07 42.09040 132.21481 36257 ft 458 kts 181°
2026-04-25 18:07 42.05862 132.21758 36701 ft 455 kts 181°
2026-04-25 18:07 42.02743 132.22025 36864 ft 452 kts 181°
2026-04-25 18:08 41.99619 132.22295 36900 ft 450 kts 181°
2026-04-25 18:08 41.93304 132.22833 36902 ft 455 kts 181°
2026-04-25 18:09 41.86959 132.23377 36911 ft 455 kts 181°
2026-04-25 18:09 41.80671 132.23915 36883 ft 453 kts 181°
2026-04-25 18:10 41.74417 132.24448 36889 ft 453 kts 181°
2026-04-25 18:10 41.68098 132.24986 36884 ft 455 kts 181°
2026-04-25 18:11 41.61778 132.25525 36932 ft 454 kts 181°
2026-04-25 18:11 41.55492 132.26057 36886 ft 453 kts 180°
2026-04-25 18:12 41.49218 132.26588 36919 ft 455 kts 181°
2026-04-25 18:12 41.42907 132.27104 36884 ft 454 kts 181°
2026-04-25 18:13 41.36589 132.27615 36912 ft 455 kts 181°
2026-04-25 18:13 41.30267 132.28124 36898 ft 454 kts 180°
2026-04-25 18:14 41.20824 132.28885 36893 ft 455 kts 180°
2026-04-25 18:14 41.14516 132.29391 36925 ft 454 kts 180°
2026-04-25 18:15 41.08213 132.29897 36887 ft 454 kts 180°
2026-04-25 18:15 41.01938 132.30400 36953 ft 454 kts 180°
2026-04-25 18:16 40.95604 132.30905 36870 ft 454 kts 180°
2026-04-25 18:17 40.86096 132.31662 36903 ft 455 kts 180°
2026-04-25 18:17 40.79812 132.32163 36912 ft 452 kts 180°
2026-04-25 18:18 40.73508 132.32661 36912 ft 453 kts 180°
2026-04-25 18:18 40.67220 132.33160 36957 ft 453 kts 180°
2026-04-25 18:19 40.60932 132.33658 36932 ft 452 kts 180°
2026-04-25 18:19 40.54668 132.34151 36922 ft 453 kts 180°
2026-04-25 18:20 40.48347 132.34648 36915 ft 453 kts 180°
2026-04-25 18:20 40.42072 132.35143 36999 ft 453 kts 180°
2026-04-25 18:21 40.35794 132.35635 36950 ft 452 kts 180°
2026-04-25 18:21 40.29538 132.36125 36941 ft 451 kts 180°
2026-04-25 18:22 40.23228 132.36616 36970 ft 454 kts 180°
2026-04-25 18:22 40.16944 132.37109 36982 ft 450 kts 181°
2026-04-25 18:23 40.10700 132.37593 36952 ft 452 kts 180°
2026-04-25 18:23 40.04413 132.38083 36996 ft 452 kts 181°
2026-04-25 18:24 39.98129 132.38571 36952 ft 451 kts 180°
2026-04-25 18:24 39.91893 132.39053 36953 ft 450 kts 181°
2026-04-25 18:25 39.85613 132.39539 36983 ft 451 kts 181°
2026-04-25 18:25 39.79350 132.40021 36976 ft 452 kts 180°
2026-04-25 18:26 39.73134 132.40501 36996 ft 449 kts 181°
2026-04-25 18:26 39.66899 132.40979 36950 ft 450 kts 181°
2026-04-25 18:27 39.60645 132.41458 36966 ft 451 kts 181°
2026-04-25 18:27 39.54400 132.41939 37018 ft 448 kts 181°
2026-04-25 18:28 39.48163 132.42413 36974 ft 451 kts 181°
2026-04-25 18:28 39.41937 132.42891 36975 ft 448 kts 181°
2026-04-25 18:29 39.32589 132.43500 37032 ft 448 kts 182°
2026-04-25 18:30 39.20159 132.44225 37005 ft 446 kts 182°
2026-04-25 18:30 39.13977 132.44582 36969 ft 448 kts 182°
2026-04-25 18:31 39.07768 132.44943 37025 ft 444 kts 182°
2026-04-25 18:31 39.01601 132.45299 37053 ft 446 kts 182°
2026-04-25 18:32 38.95392 132.45656 36992 ft 447 kts 182°
2026-04-25 18:32 38.89173 132.46016 37046 ft 445 kts 182°
2026-04-25 18:33 38.82981 132.46374 37053 ft 442 kts 182°
2026-04-25 18:33 38.76800 132.46725 37025 ft 445 kts 182°
2026-04-25 18:34 38.70641 132.47081 37075 ft 444 kts 182°
2026-04-25 18:34 38.64448 132.47441 37026 ft 444 kts 181°
2026-04-25 18:35 38.58280 132.48538 37031 ft 449 kts 177°
2026-04-25 18:35 38.52119 132.49754 37025 ft 448 kts 176°
2026-04-25 18:36 38.45938 132.50984 37018 ft 449 kts 177°
2026-04-25 18:36 38.39809 132.52206 37066 ft 448 kts 177°
2026-04-25 18:37 38.33613 132.53439 37047 ft 447 kts 177°
2026-04-25 18:37 38.27490 132.54657 37025 ft 448 kts 176°
2026-04-25 18:38 38.21323 132.55882 37037 ft 447 kts 177°
2026-04-25 18:38 38.15172 132.57101 37046 ft 448 kts 177°
2026-04-25 18:39 38.09059 132.58313 37068 ft 446 kts 177°
2026-04-25 18:39 38.02879 132.59532 37043 ft 448 kts 177°
2026-04-25 18:40 37.96758 132.60744 37018 ft 446 kts 178°
2026-04-25 18:40 37.90599 132.61963 37052 ft 448 kts 177°
2026-04-25 18:41 37.84781 132.63115 37035 ft 447 kts 178°
2026-04-25 18:41 37.78656 132.64328 37075 ft 446 kts 178°
2026-04-25 18:42 37.73531 132.65337 37034 ft 448 kts 178°
2026-04-25 18:42 37.66397 132.66746 37034 ft 443 kts 179°
2026-04-25 18:43 37.60285 132.67944 37053 ft 446 kts 179°
2026-04-25 18:43 37.54226 132.69133 36999 ft 444 kts 179°
2026-04-25 18:44 37.48145 132.70325 37098 ft 443 kts 179°
2026-04-25 18:44 37.42056 132.71512 37023 ft 443 kts 179°
2026-04-25 18:45 37.35947 132.72705 37081 ft 441 kts 179°
2026-04-25 18:45 37.29882 132.73895 37055 ft 443 kts 179°
2026-04-25 18:46 37.23834 132.75143 37070 ft 443 kts 179°
2026-04-25 18:46 37.17802 132.76382 37095 ft 440 kts 179°
2026-04-25 18:47 37.11831 132.77608 37037 ft 441 kts 180°
2026-04-25 18:47 37.05762 132.78848 37048 ft 441 kts 179°
2026-04-25 18:48 36.99691 132.80089 37043 ft 443 kts 179°
2026-04-25 18:48 36.93636 132.81328 37071 ft 440 kts 180°
2026-04-25 18:49 36.87628 132.82547 37067 ft 441 kts 179°
2026-04-25 18:49 36.81547 132.83787 37045 ft 438 kts 180°
2026-04-25 18:50 36.75610 132.84994 37060 ft 436 kts 180°
2026-04-25 18:50 36.69554 132.86217 37063 ft 441 kts 180°
2026-04-25 18:51 36.64483 132.87245 37040 ft 437 kts 181°
2026-04-25 18:51 36.57561 132.88640 37077 ft 434 kts 181°
2026-04-25 18:52 36.51506 132.89853 37084 ft 441 kts 180°
2026-04-25 18:52 36.45459 132.91069 36982 ft 439 kts 180°
2026-04-25 18:53 36.42507 132.91667 37127 ft 433 kts 181°
2026-04-25 18:53 36.39924 132.92184 37066 ft 431 kts 181°
2026-04-25 18:53 36.34145 132.93339 37047 ft 432 kts 181°
2026-04-25 18:54 36.25269 132.95114 36972 ft 427 kts 181°
2026-04-25 18:55 36.19379 132.96286 37065 ft 430 kts 181°
2026-04-25 18:55 36.13447 132.97472 37066 ft 428 kts 182°
2026-04-25 18:56 36.07566 132.98640 37065 ft 427 kts 182°
2026-04-25 18:56 36.01674 132.99806 37079 ft 430 kts 182°
2026-04-25 18:57 35.95781 133.00980 37065 ft 428 kts 183°
2026-04-25 18:57 35.89963 133.02127 37061 ft 428 kts 182°
2026-04-25 18:58 35.84148 133.03281 37079 ft 427 kts 183°
2026-04-25 18:58 35.75638 133.04961 37084 ft 423 kts 183°
2026-04-25 18:59 35.64146 133.07222 37086 ft 422 kts 183°
2026-04-25 19:00 35.58436 133.08815 37090 ft 444 kts 172°
2026-04-25 19:00 35.55570 133.10496 37087 ft 463 kts 162°
2026-04-25 19:01 35.50464 133.15630 37106 ft 492 kts 143°
2026-04-25 19:01 35.48349 133.18997 37077 ft 510 kts 135°
2026-04-25 19:01 35.46601 133.22819 37092 ft 527 kts 126°
2026-04-25 19:01 35.45247 133.27100 37090 ft 542 kts 117°
2026-04-25 19:02 35.41412 133.39925 37089 ft 530 kts 123°
2026-04-25 19:03 35.37501 133.50794 37094 ft 529 kts 125°
2026-04-25 19:03 35.33950 133.60297 37106 ft 525 kts 126°
2026-04-25 19:04 35.30962 133.68228 37080 ft 499 kts 127°
2026-04-25 19:04 35.29519 133.72040 36924 ft 488 kts 128°
2026-04-25 19:05 35.26632 133.79579 35266 ft 496 kts 128°
2026-04-25 19:05 35.23761 133.87111 33839 ft 499 kts 128°
2026-04-25 19:05 35.22178 133.90796 33072 ft 489 kts 134°
2026-04-25 19:06 35.20206 133.94095 32443 ft 471 kts 144°
2026-04-25 19:06 35.15460 133.99248 30847 ft 450 kts 158°
2026-04-25 19:06 35.12804 134.01103 29974 ft 439 kts 166°
2026-04-25 19:07 35.07099 134.03363 28543 ft 423 kts 175°
2026-04-25 19:07 35.04277 134.04176 27899 ft 419 kts 177°
2026-04-25 19:08 34.98605 134.05560 26681 ft 414 kts 177°
2026-04-25 19:08 34.95785 134.06187 26111 ft 410 kts 178°
2026-04-25 19:09 34.87917 134.07547 24475 ft 401 kts 178°
2026-04-25 19:09 34.86136 134.07840 24141 ft 400 kts 178°
2026-04-25 19:09 34.79734 134.08874 22880 ft 395 kts 177°
2026-04-25 19:10 34.77000 134.09315 22278 ft 394 kts 177°
2026-04-25 19:10 34.74304 134.09750 21781 ft 389 kts 177°
2026-04-25 19:10 34.71663 134.10176 21290 ft 385 kts 178°
2026-04-25 19:10 34.69019 134.10599 20766 ft 382 kts 177°
2026-04-25 19:11 34.66579 134.10988 20326 ft 379 kts 177°
2026-04-25 19:11 34.63946 134.11409 19765 ft 377 kts 177°
2026-04-25 19:11 34.61371 134.11822 19359 ft 371 kts 177°
2026-04-25 19:11 34.58836 134.12224 18761 ft 372 kts 177°
2026-04-25 19:12 34.56289 134.12631 18334 ft 366 kts 177°
2026-04-25 19:12 34.53766 134.13052 17751 ft 366 kts 174°
2026-04-25 19:12 34.51378 134.14049 17243 ft 373 kts 156°
2026-04-25 19:12 34.49296 134.15823 16762 ft 377 kts 140°
2026-04-25 19:13 34.47617 134.18312 16269 ft 379 kts 124°
2026-04-25 19:13 34.46550 134.21225 15702 ft 383 kts 108°
2026-04-25 19:13 34.46186 134.24377 15431 ft 377 kts 91°
2026-04-25 19:13 34.46481 134.27525 14828 ft 378 kts 78°
2026-04-25 19:14 34.46912 134.30620 14438 ft 372 kts 87°
2026-04-25 19:14 34.46907 134.32666 14214 ft 366 kts 94°
2026-04-25 19:14 34.46405 134.36745 13467 ft 365 kts 103°
2026-04-25 19:14 34.45817 134.39685 13204 ft 356 kts 105°
2026-04-25 19:15 34.45148 134.42574 12566 ft 358 kts 108°
2026-04-25 19:15 34.44433 134.45425 12135 ft 354 kts 109°
2026-04-25 19:15 34.43695 134.48239 11662 ft 352 kts 109°
2026-04-25 19:15 34.42935 134.51064 11298 ft 348 kts 109°
2026-04-25 19:16 34.42188 134.53809 10755 ft 348 kts 109°
2026-04-25 19:16 34.41436 134.56543 10454 ft 341 kts 109°
2026-04-25 19:16 34.40686 134.59262 10146 ft 330 kts 109°
2026-04-25 19:16 34.39988 134.61792 10086 ft 306 kts 109°
2026-04-25 19:17 34.39336 134.64142 10079 ft 292 kts 109°
2026-04-25 19:17 34.38697 134.66440 10005 ft 282 kts 110°
2026-04-25 19:17 34.38075 134.68675 9665 ft 282 kts 110°
2026-04-25 19:17 34.37447 134.70932 9315 ft 283 kts 110°
2026-04-25 19:18 34.36794 134.73178 9104 ft 277 kts 112°
2026-04-25 19:18 34.36096 134.75357 8776 ft 278 kts 112°
2026-04-25 19:18 34.35403 134.77533 8492 ft 278 kts 113°
2026-04-25 19:18 34.34711 134.79703 8068 ft 273 kts 113°
2026-04-25 19:19 34.34045 134.81796 7741 ft 263 kts 113°
2026-04-25 19:19 34.33391 134.83844 7303 ft 259 kts 112°
2026-04-25 19:19 34.32738 134.85889 6892 ft 260 kts 113°
2026-04-25 19:19 34.32301 134.87254 6610 ft 263 kts 112°
2026-04-25 19:20 34.31431 134.89978 5963 ft 258 kts 113°
2026-04-25 19:20 34.30796 134.91972 5538 ft 252 kts 110°
2026-04-25 19:20 34.30595 134.94032 5102 ft 248 kts 83°
2026-04-25 19:20 34.30976 134.96040 4710 ft 243 kts 78°
2026-04-25 19:21 34.31378 134.98010 4277 ft 239 kts 78°
2026-04-25 19:21 34.32176 135.01765 3516 ft 223 kts 78°
2026-04-25 19:21 34.32559 135.03531 3154 ft 216 kts 78°
2026-04-25 19:22 34.32904 135.05254 2942 ft 202 kts 78°
2026-04-25 19:22 34.33519 135.06722 2832 ft 189 kts 54°
2026-04-25 19:22 34.35048 135.09018 2443 ft 161 kts 54°
2026-04-25 19:23 34.35702 135.09999 2284 ft 139 kts 55°
2026-04-25 19:23 34.36862 135.11740 1888 ft 129 kts 54°
2026-04-25 19:23 34.37427 135.12587 1744 ft 132 kts 54°
2026-04-25 19:24 34.38000 135.13446 1571 ft 131 kts 53°
2026-04-25 19:24 34.38582 135.14291 1384 ft 131 kts 52°
2026-04-25 19:24 34.39742 135.15997 1059 ft 131 kts 52°
2026-04-25 19:25 34.40884 135.17711 699 ft 132 kts 51°
2026-04-25 19:25 34.41469 135.18568 497 ft 131 kts 51°
2026-04-25 19:25 34.42048 135.19420 307 ft 132 kts 51°
2026-04-25 19:26 34.42621 135.20271 125 ft 131 kts 50°
2026-04-25 19:26 34.43193 135.21129 13 ft 125 kts 51°
2026-04-25 19:26 34.43599 135.21724 12 ft 60 kts 51°
2026-04-25 19:26 34.43807 135.22072 12 ft 41 kts 71°
2026-04-25 19:27 34.43833 135.22218 12 ft 7 kts 80°
2026-04-25 19:27 34.43839 135.22258 12 ft 7 kts 80°
2026-04-25 19:27 34.43851 135.22342 12 ft 8 kts 81°
2026-04-25 19:27 34.43861 135.22417 11 ft 9 kts 81°
2026-04-25 19:28 34.43847 135.22484 12 ft 8 kts 124°
2026-04-25 19:28 34.43798 135.22539 12 ft 9 kts 142°
2026-04-25 19:28 34.43750 135.22584 11 ft 9 kts 141°
2026-04-25 19:28 34.43700 135.22633 12 ft 10 kts 141°
2026-04-25 19:29 34.43629 135.22704 12 ft 13 kts 140°
2026-04-25 19:29 34.43553 135.22778 12 ft 14 kts 140°
2026-04-25 19:29 34.43476 135.22855 12 ft 14 kts 140°
2026-04-25 19:29 34.43399 135.22931 12 ft 13 kts 140°
2026-04-25 19:30 34.43325 135.23003 12 ft 13 kts 141°
2026-04-25 19:30 34.43248 135.23077 12 ft 14 kts 141°
2026-04-25 19:30 34.43171 135.23152 12 ft 14 kts 140°
2026-04-25 19:30 34.43090 135.23231 12 ft 15 kts 140°
2026-04-25 19:31 34.43018 135.23302 12 ft 9 kts 141°
2026-04-25 19:31 34.42972 135.23354 12 ft 7 kts 116°
2026-04-25 19:31 34.42979 135.23407 12 ft 5 kts 57°
2026-04-25 19:31 34.43005 135.23451 12 ft 7 kts 55°
2026-04-25 19:32 34.43018 135.23508 12 ft 6 kts 102°
2026-04-25 19:32 34.42989 135.23555 12 ft 6 kts 139°
2026-04-25 19:32 34.42950 135.23595 12 ft 7 kts 140°
2026-04-25 19:32 34.42923 135.23622 12 ft 8 kts 139°
2026-04-25 19:33 34.42876 135.23673 12 ft 4 kts 128°
2026-04-25 19:33 34.42878 135.23691 12 ft 2 kts 54°
2026-04-25 19:33 34.42897 135.23711 12 ft 4 kts 41°
2026-04-25 19:33 34.42916 135.23738 12 ft 3 kts 50°
2026-04-25 19:34 34.42920 135.23744 12 ft 0 kts 50°